Regional Weather Roundup
Issued by NWS

Home | Current Version | Previous Version | Text Only | Print | Product List | Glossary On
Versions: 1 2 3 4 5 6 7 8 9 10 11 12 13 14 15 16 17 18 19 20 21 22 23 24 25 26 27 28 29 30 31 32 33 34 35 36 37 38 39 40 41 42 43 44 45 46 47 48 49 50
000
ASUS46 KPQR 301510
RWROR

OREGON REGIONAL WEATHER ROUNDUP
NATIONAL WEATHER SERVICE PORTLAND OR
800 AM PDT WED JUL 30 2014

NOTE: "FAIR" INDICATES FEW OR NO CLOUDS BELOW 12,000 FEET WITH
NO SIGNIFICANT WEATHER AND/OR OBSTRUCTIONS TO VISIBILITY.

ORZ001>013-301600-
NORTHWEST OREGON


CITY           SKY/WX    TMP DP  RH WIND       PRES   REMARKS
ASTORIA        SUNNY     61  55  81 NW10      30.15F
NEWPORT        CLOUDY    54  54 100 CALM      30.16S
PORTLAND       PTSUNNY   62  57  83 NW6       30.13S
VANCOUVER WA   CLOUDY    61  55  81 N5        30.13R
SCAPPOOSE      SUNNY     63  55  75 N7        30.12S
HILLSBORO      SUNNY     62  54  74 CALM      30.12S
AURORA         SUNNY     64  56  75 NE7       30.13S
MCMINNVILLE    SUNNY     62  55  77 W3        30.13S
SALEM          SUNNY     66  55  67 NE7       30.11S
CORVALLIS      SUNNY     63  54  72 NW5       30.12F
EUGENE         PTSUNNY   63  55  75 CALM      30.12R
$$

ORZ021-028-301600-
SOUTHWEST OREGON


CITY           SKY/WX    TMP DP  RH WIND       PRES   REMARKS
NORTH BEND     CLOUDY    55  55 100 N6        30.14R
BROOKINGS      FOG       53  53 100 NW5       30.06R VSB<1/4
ROSEBURG       MOSUNNY   65  55  70 CALM      30.10S
SEXTON SUMMIT  SUNNY     65  52  62 N9        30.17R
MEDFORD        MOSUNNY   71  56  58 CALM      30.07R
$$

ORZ009-041-301600-
COLUMBIA GORGE


CITY           SKY/WX    TMP DP  RH WIND       PRES   REMARKS
TROUTDALE      CLOUDY    62  57  83 W3        30.12S
THE DALLES     SUNNY     72  58  61 NW14      30.01S
$$

ORZ029>031-042>050-061>064-301600-
EASTERN OREGON


CITY           SKY/WX    TMP DP  RH WIND       PRES   REMARKS
REDMOND        SUNNY     69  42  37 S5        30.15R
BEND           SUNNY     70  48  46 SW7       30.18R
KLAMATH FALLS  SUNNY     68  52  56 VRB3      30.21R
LAKEVIEW       SUNNY     63  43  48 CALM      30.27S
HERMISTON      SUNNY     81  55  40 NW5       30.00R
PENDLETON      MOSUNNY   82  44  26 VRB3      30.03R
JOHN DAY       SUNNY     71  44  37 E5        30.19S
MEACHAM        MOSUNNY   63  54  72 CALM      30.18S
LA GRANDE      PTSUNNY   73  45  35 NE7       30.12S
BAKER CITY     MOSUNNY   67  50  54 CALM      30.18R
BURNS          SUNNY     67  46  47 E3        30.22R
ROME             N/A     76  45  33 CALM      30.19S
ONTARIO        SUNNY     73  56  54 SW6       30.12R
$$


USA.gov is the U.S. government's official web portal to all federal, state and local government web resources and services.